{"data":{"norad_id":39440,"intl_designator":"2013-066AA","name":"CUBEBUG-2 (LO-74)","alt_names":[],"object_type":"PAYLOAD","status":"ACTIVE","operator":null,"country":"ARGN","launch_date":"2013-11-21","launch_site_code":"DLS","launch_vehicle":null,"mission":null,"orbit_class":"UNKNOWN","rcs_meters":0.1111,"size_class":null,"mass_kg":null,"dimensions":null,"purposes":["comms","tech_demo"],"wikipedia_slug":null,"has_3d_model":false,"image_url":null,"decayed_at":null,"tle_current":{"epoch":"2026-09-20T02:21:37.626624Z","epoch_age_seconds":49012,"freshness":"FRESH","line1":"1 39440U 13066AA  26263.09835216  .00002265  00000+0  20952-3 0  9994","line2":"2 39440  97.8991 212.5547 0058631  72.8867 287.8762 14.94295020691161","mean_motion":14.9429502,"eccentricity":0.0058631,"inclination_deg":97.8991,"raan_deg":212.5547,"arg_perigee_deg":72.8867,"mean_anomaly_deg":287.8762,"bstar":0.00020952,"rev_number":69116,"period_min":96.366512685025,"perigee_km":543.73880379293,"apogee_km":625.38480249838,"semimajor_km":6962.6988031457,"source":"CELESTRAK","updated_at":"2026-09-20T09:00:48.023194Z"}}}